Location: Zagreb
(45.8000°N, 16.0000°E)
Time: 08:43:36
(UTC+02:00)

Courier 1B - Pass Details

Date: 12 August 2020
Orbit: 962 x 1209 km, 28.3° (Epoch: 27 September)

Event Time Altitude Azimuth Distance (km) Brightness Sun altitude
Rises 22:56:04 0° 248° (WSW) 3,854 10.8 -23.3°
Reaches altitude 10° 23:01:14 10° 217° (SW) 2,828 9.7 -23.8°
Enters shadow 23:01:23 10° 215° (SW) 2,814 9.7 -23.8°
Maximum altitude 23:03:12 11° 200° (SSW) 2,706 - -24.0°
Drops below altitude 10° 23:05:08 10° 183° (S) 2,780 - -24.2°
Sets 23:10:04 0° 151° (SSE) 3,677 - -24.6°
